GW3616 Weather Reports


Display with metric or nautical units.
time (UTC)temp
F
wind
direction
speed
MPH
gust
MPH
rain 1hr
in
rain 24hr
in
rain mn
in
humidity
%
barometer
mb
20260505073320 53 321 3.0 9.0 0.00 0.00 0.00 59 1004.0
20260505072817 53 303 5.0 6.0 0.00 0.00 0.00 59 1004.0
20260505072313 53 304 6.0 8.0 0.00 0.00 0.00 59 1003.9
20260505071809 54 0 2.0 10.0 0.00 0.00 0.00 59 1003.8
20260505071305 54 333 3.0 9.0 0.00 0.00 0.00 58 1003.6
20260505070803 54 303 6.0 8.0 0.00 0.00 0.00 58 1003.7
20260505070254 54 7 7.0 11.0 0.00 0.00 0.00 59 1003.8
20260505065749 54 322 7.0 11.0 0.00 0.00 0.00 57 1003.6
20260505065246 54 328 9.0 11.0 0.00 0.00 0.00 57 1003.6
20260505064743 54 351 11.0 18.0 0.00 0.00 0.00 58 1003.8
20260505064241 54 339 6.0 9.0 0.00 0.00 0.00 59 1003.9
20260505063738 54 324 5.0 10.0 0.00 0.00 0.00 60 1004.1
20260505063234 54 351 2.0 6.0 0.00 0.00 0.00 59 1003.3
20260505062731 54 316 5.0 8.0 0.00 0.00 0.00 62 1003.6
20260505062229 54 290 7.0 10.0 0.00 0.00 0.00 63 1003.5
20260505061725 54 293 3.0 5.0 0.00 0.00 0.00 68 1003.5
20260505061224 52 299 5.0 9.0 0.00 0.00 0.00 76 1003.6
20260505060721 52 262 3.0 4.0 0.00 0.00 0.00 82 1003.4
20260505060217 51 270 4.0 4.0 0.00 0.00 0.00 87 1003.5
20260505055713 51 310 3.0 3.0 0.00 0.00 0.00 89 1003.2
20260505055209 51 352 1.0 1.0 0.00 0.00 0.00 90 1003.2
20260505054707 52 255 3.0 5.0 0.00 0.00 0.00 90 1003.3
20260505054205 52 210 4.0 5.0 0.00 0.00 0.00 89 1003.2
20260505053703 52 207 3.0 4.0 0.00 0.00 0.00 88 1003.2
20260505053158 53 245 4.0 4.0 0.00 0.00 0.00 87 1003.2
20260505052655 53 288 2.0 3.0 0.00 0.00 0.00 86 1003.2
20260505052147 53 332 1.0 3.0 0.00 0.00 0.00 86 1003.0
20260505051643 52 294 3.0 5.0 0.00 0.00 0.00 88 1002.8
20260505051142 52 295 4.0 5.0 0.00 0.00 0.00 88 1003.0
20260505050639 52 0 2.0 3.0 0.00 0.00 0.00 88 1002.8
20260505050138 52 291 3.0 4.0 0.00 0.00 0.00 88 1002.8
20260505041607 53 146 1.0 4.0 0.00 0.00 0.00 88 1002.4
20260505041104 53 152 4.0 4.0 0.00 0.00 0.00 87 1002.4
20260505040601 53 91 1.0 1.0 0.00 0.00 0.00 86 1002.3
20260505040058 53 89 1.0 3.0 0.00 0.00 0.00 86 1002.0
20260505035554 53 86 0.0 0.0 0.00 0.00 0.00 86 1002.4
20260505035051 54 180 1.0 3.0 0.00 0.00 0.00 86 1002.1
20260505034548 54 216 3.0 4.0 0.00 0.00 0.00 85 1002.1
20260505034044 54 217 5.0 6.0 0.00 0.00 0.00 85 1002.5
20260505033541 55 244 5.0 9.0 0.00 0.00 0.00 84 1002.4
20260505033040 54 269 6.0 9.0 0.00 0.00 0.00 84 1002.0
20260505032537 54 278 8.0 13.0 0.00 0.00 0.00 83 1002.3
20260505032033 54 281 14.0 16.0 0.00 0.00 0.00 82 1002.4
20260505031531 54 263 10.0 13.0 0.00 0.00 0.00 83 1002.4
20260505031027 56 266 10.0 11.0 0.00 0.00 0.00 81 1002.0
20260505030524 57 280 13.0 16.0 0.00 0.00 0.00 79 1001.7
20260505030020 57 299 15.0 16.0 0.00 0.00 0.00 79 1001.9
20260505025516 57 264 8.0 10.0 0.00 0.00 0.00 80 1001.2
20260505025015 58 254 9.0 13.0 0.00 0.00 0.00 79 1001.1
20260505024511 60 253 11.0 13.0 0.00 0.00 0.00 75 1001.0
20260505024009 62 273 11.0 18.0 0.00 0.00 0.00 73 1001.4
20260505023506 63 232 15.0 20.0 0.00 0.00 0.00 70 1000.6
20260505023003 64 246 12.0 18.0 0.00 0.00 0.00 68 1001.1
20260505022501 64 239 15.0 21.0 0.00 0.00 0.00 68 1000.8
20260505021958 64 217 9.0 23.0 0.00 0.00 0.00 67 1000.3
20260505021454 64 218 16.0 29.0 0.00 0.00 0.00 64 999.9
20260505020950 65 214 18.0 20.0 0.00 0.00 0.00 61 1000.2
20260505020445 64 220 22.0 28.0 0.00 0.00 0.00 59 1000.1
20260505015942 64 238 13.0 19.0 0.00 0.00 0.00 62 1000.1
20260505015440 64 213 13.0 19.0 0.00 0.00 0.00 63 1000.1
20260505014937 64 233 10.0 16.0 0.00 0.00 0.00 64 1000.0
20260505014433 65 224 16.0 20.0 0.00 0.00 0.00 64 1000.1
20260505013931 65 214 13.0 20.0 0.00 0.00 0.00 64 1000.0
20260505013428 65 196 12.0 23.0 0.00 0.00 0.00 66 999.9
20260505012925 65 202 15.0 24.0 0.00 0.00 0.00 66 1000.0
20260505012423 66 213 17.0 23.0 0.00 0.00 0.00 67 999.7
20260505011919 66 199 18.0 24.0 0.00 0.00 0.00 66 999.7
20260505011416 66 218 20.0 26.0 0.00 0.00 0.00 66 999.5
20260505010913 67 217 16.0 29.0 0.00 0.00 0.00 66 999.6
20260505010408 68 231 12.0 24.0 0.00 0.00 0.00 65 999.3
20260505005904 68 201 11.0 20.0 0.00 0.00 0.00 64 999.4
20260505005401 68 223 20.0 23.0 0.00 0.00 0.00 63 999.6
20260505004859 68 185 14.0 23.0 0.00 0.00 0.00 62 999.3
20260505004355 69 246 12.0 31.0 0.00 0.00 0.00 61 999.5
20260505003852 69 223 13.0 19.0 0.00 0.00 0.00 61 999.5
20260505003350 70 222 16.0 25.0 0.00 0.00 0.00 60 999.5
20260505002845 70 201 17.0 21.0 0.00 0.00 0.00 57 999.4
20260505002342 71 234 13.0 20.0 0.00 0.00 0.00 52 999.2
20260505001841 71 194 9.0 20.0 0.00 0.00 0.00 48 999.1
20260505001337 72 191 7.0 16.0 0.00 0.00 0.00 46 999.1
20260505000835 72 193 15.0 24.0 0.00 0.00 0.00 42 999.0
20260505000332 73 195 10.0 26.0 0.00 0.00 0.00 43 998.7
20260504235829 73 219 8.0 11.0 0.00 0.00 0.00 44 998.8
20260504235326 73 206 7.0 11.0 0.00 0.00 0.00 44 998.8
20260504234823 73 200 7.0 16.0 0.00 0.00 0.00 43 998.8
20260504234320 73 228 9.0 13.0 0.00 0.00 0.00 43 998.8
20260504233817 73 210 9.0 14.0 0.00 0.00 0.00 42 998.8
20260504233312 74 220 11.0 14.0 0.00 0.00 0.00 42 998.9
20260504232809 74 213 13.0 16.0 0.00 0.00 0.00 41 999.0
20260504232307 74 220 10.0 13.0 0.00 0.00 0.00 41 999.4
20260504231803 74 223 11.0 14.0 0.00 0.00 0.00 42 999.5
20260504231300 74 220 9.0 11.0 0.00 0.00 0.00 43 999.2
20260504230756 74 236 10.0 15.0 0.00 0.00 0.00 42 999.7
20260504230254 74 234 8.0 15.0 0.00 0.00 0.00 42 999.7
20260504225753 74 192 12.0 15.0 0.00 0.00 0.00 43 999.7
20260504225248 74 217 10.0 11.0 0.00 0.00 0.00 43 1000.0
20260504224745 74 211 11.0 16.0 0.00 0.00 0.00 42 1000.0
20260504224243 73 229 15.0 16.0 0.00 0.00 0.00 41 1000.4
20260504223739 73 182 8.0 15.0 0.00 0.00 0.00 44 1000.4
20260504223234 74 232 13.0 14.0 0.00 0.00 0.00 42 1000.4
20260504222732 74 217 15.0 18.0 0.00 0.00 0.00 43 1000.6
20260504222229 74 213 12.0 16.0 0.00 0.00 0.00 43 1000.4
20260504221726 74 227 14.0 19.0 0.00 0.00 0.00 42 1000.6
20260504221223 74 234 9.0 14.0 0.00 0.00 0.00 45 1000.6
20260504220720 74 226 12.0 18.0 0.00 0.00 0.00 43 1000.6
20260504220217 74 213 15.0 16.0 0.00 0.00 0.00 41 1000.6
20260504215714 74 211 13.0 23.0 0.00 0.00 0.00 44 1000.7
20260504215211 73 216 15.0 20.0 0.00 0.00 0.00 41 1000.8
20260504214706 73 234 18.0 21.0 0.00 0.00 0.00 43 1000.8
20260504214203 73 212 11.0 18.0 0.00 0.00 0.00 46 1000.9
20260504213700 73 201 15.0 23.0 0.00 0.00 0.00 45 1000.9
20260504213156 73 196 11.0 14.0 0.00 0.00 0.00 47 1001.0
20260504212653 73 228 16.0 21.0 0.00 0.00 0.00 46 1001.0
20260504212150 73 234 13.0 19.0 0.00 0.00 0.00 47 1001.2
20260504211647 73 233 12.0 21.0 0.00 0.00 0.00 48 1001.2
20260504211143 73 217 18.0 25.0 0.00 0.00 0.00 47 1000.9
20260504210641 73 229 18.0 21.0 0.00 0.00 0.00 47 1001.4
20260504210137 73 219 16.0 23.0 0.00 0.00 0.00 47 1001.3
20260504205635 73 234 18.0 20.0 0.00 0.00 0.00 47 1001.6
20260504205132 73 246 18.0 23.0 0.00 0.00 0.00 48 1001.6
20260504204631 73 221 17.0 24.0 0.00 0.00 0.00 48 1001.5
20260504204129 73 212 12.0 26.0 0.00 0.00 0.00 51 1001.7
20260504203628 73 225 18.0 23.0 0.00 0.00 0.00 52 1001.8
20260504203125 72 196 9.0 21.0 0.00 0.00 0.00 51 1001.7
20260504202625 72 236 15.0 21.0 0.00 0.00 0.00 52 1002.1
20260504202122 72 217 17.0 20.0 0.00 0.00 0.00 52 1001.8
20260504201619 72 212 27.0 30.0 0.00 0.00 0.00 50 1001.9
20260504201117 72 225 19.0 23.0 0.00 0.00 0.00 52 1002.1
20260504200614 72 214 18.0 21.0 0.00 0.00 0.00 51 1002.0
20260504200110 71 207 18.0 24.0 0.00 0.00 0.00 52 1002.3
20260504195606 71 223 24.0 26.0 0.00 0.00 0.00 52 1002.1
20260504195102 71 234 19.0 25.0 0.00 0.00 0.00 53 1002.3
20260504194600 71 222 15.0 23.0 0.00 0.00 0.00 52 1002.5
20260504194055 71 175 15.0 21.0 0.00 0.00 0.00 54 1002.4
20260504193552 71 217 20.0 21.0 0.00 0.00 0.00 53 1002.5
20260504193050 71 228 15.0 24.0 0.00 0.00 0.00 53 1002.6
20260504192548 71 219 24.0 25.0 0.00 0.00 0.00 51 1002.7
20260504192046 70 222 21.0 26.0 0.00 0.00 0.00 53 1002.6
20260504191544 71 226 20.0 28.0 0.00 0.00 0.00 51 1002.6
20260504191039 71 208 15.0 21.0 0.00 0.00 0.00 53 1002.5
20260504190536 71 232 20.0 26.0 0.00 0.00 0.00 52 1002.7
20260504190032 70 246 21.0 24.0 0.00 0.00 0.00 52 1002.8
20260504185530 70 199 18.0 25.0 0.00 0.00 0.00 52 1002.7
20260504185026 70 227 17.0 26.0 0.00 0.00 0.00 50 1002.8
20260504184521 70 234 17.0 24.0 0.00 0.00 0.00 51 1002.9
20260504184017 70 229 21.0 29.0 0.00 0.00 0.00 46 1002.9
20260504183514 70 208 16.0 19.0 0.00 0.00 0.00 47 1002.8
20260504183013 70 223 20.0 24.0 0.00 0.00 0.00 46 1002.8
20260504182509 70 251 18.0 20.0 0.00 0.00 0.00 48 1003.0
20260504182006 70 231 19.0 26.0 0.00 0.00 0.00 49 1002.9
20260504181503 69 244 18.0 20.0 0.00 0.00 0.00 50 1002.7
20260504181002 69 237 15.0 23.0 0.00 0.00 0.00 50 1002.8
20260504180500 69 240 15.0 24.0 0.00 0.00 0.00 47 1002.7
20260504175958 70 241 13.0 20.0 0.00 0.00 0.00 48 1003.0
20260504175455 70 223 16.0 19.0 0.00 0.00 0.00 49 1003.0
20260504174952 69 235 16.0 21.0 0.00 0.00 0.00 47 1002.7
20260504174450 70 238 21.0 24.0 0.00 0.00 0.00 43 1003.0
20260504173947 70 237 20.0 23.0 0.00 0.00 0.00 44 1003.4
20260504173443 69 243 21.0 21.0 0.00 0.00 0.00 45 1003.3
20260504172941 69 228 18.0 24.0 0.00 0.00 0.00 44 1003.5
20260504172437 69 233 19.0 23.0 0.00 0.00 0.00 44 1003.4
20260504171934 69 210 10.0 21.0 0.00 0.00 0.00 46 1003.5
20260504171431 69 233 15.0 19.0 0.00 0.00 0.00 46 1003.5
20260504170928 68 231 18.0 24.0 0.00 0.00 0.00 45 1003.6
20260504170424 68 232 20.0 23.0 0.00 0.00 0.00 44 1003.6
20260504160343 66 243 18.0 23.0 0.00 0.00 0.00 49 1004.2
20260504150808 62 213 14.0 18.0 0.00 0.00 0.00 58 1004.8
20260504150304 62 221 16.0 19.0 0.00 0.00 0.00 58 1004.8
20260504141234 59 213 11.0 15.0 0.00 0.00 0.00 67 1005.2
20260504140731 59 217 14.0 16.0 0.00 0.00 0.00 67 1005.3
20260504140226 59 212 10.0 14.0 0.00 0.00 0.00 68 1005.4
20260504130655 56 218 11.0 15.0 0.00 0.00 0.00 74 1005.9
20260504130151 56 217 11.0 13.0 0.00 0.00 0.00 75 1006.3
20260504120115 53 221 9.0 14.0 0.00 0.00 0.00 79 1006.1
20260504110543 50 232 7.0 8.0 0.00 0.00 0.00 83 1005.4
20260504100459 50 222 3.0 4.0 0.00 0.00 0.00 84 1005.5
20260504081852 55 245 9.0 10.0 0.00 0.00 0.00 75 1006.0
20260504081349 55 233 7.0 10.0 0.00 0.00 0.00 75 1005.9
20260504080844 55 240 8.0 11.0 0.00 0.00 0.00 75 1006.0
20260504080342 55 240 9.0 10.0 0.00 0.00 0.00 74 1005.9